owner,sensor,date,latitude,longitude,vertical_datum,sea_water_practical_salinity,qcFlag 
SCCF RECON,ioos:station:SCCF:18:1,2016-09-01T00:00:00Z,26.6955,-81.8138,1.773,0.24,1111122 
SCCF RECON,ioos:station:SCCF:18:1,2016-09-01T01:00:00Z,26.6955,-81.8138,1.738,0.24,1111122 
SCCF RECON,ioos:station:SCCF:18:1,2016-09-01T02:00:00Z,26.6955,-81.8138,1.778,0.23,1111122 
SCCF RECON,ioos:station:SCCF:18:1,2016-09-01T03:00:00Z,26.6955,-81.8138,1.741,0.23,1111122 
SCCF RECON,ioos:station:SCCF:18:1,2016-09-01T04:00:00Z,26.6955,-81.8138,1.713,0.23,1111122 
SCCF RECON,ioos:station:SCCF:18:1,2016-09-01T05:00:00Z,26.6955,-81.8138,1.756,0.23,1111122 
SCCF RECON,ioos:station:SCCF:18:1,2016-09-01T06:00:00Z,26.6955,-81.8138,1.782,0.23,1111122 
SCCF RECON,ioos:station:SCCF:18:1,2016-09-01T07:00:00Z,26.6955,-81.8138,1.797,0.23,1111122 
SCCF RECON,ioos:station:SCCF:18:1,2016-09-01T08:00:00Z,26.6955,-81.8138,1.833,0.23,1111122 
SCCF RECON,ioos:station:SCCF:18:1,2016-09-01T09:00:00Z,26.6955,-81.8138,1.857,0.23,1111122 
SCCF RECON,ioos:station:SCCF:18:1,2016-09-01T10:00:00Z,26.6955,-81.8138,1.836,0.23,1111122 
SCCF RECON,ioos:station:SCCF:18:1,2016-09-01T11:00:00Z,26.6955,-81.8138,1.78,0.23,1111122 
SCCF RECON,ioos:station:SCCF:18:1,2016-09-01T12:00:00Z,26.6955,-81.8138,1.733,0.23,1111122 
SCCF RECON,ioos:station:SCCF:18:1,2016-09-01T13:00:00Z,26.6955,-81.8138,1.691,0.23,1111122 
SCCF RECON,ioos:station:SCCF:18:1,2016-09-01T14:00:00Z,26.6955,-81.8138,1.666,0.23,1111122 
SCCF RECON,ioos:station:SCCF:18:1,2016-09-01T15:00:00Z,26.6955,-81.8138,1.673,0.23,1111122 
SCCF RECON,ioos:station:SCCF:18:1,2016-09-01T16:00:00Z,26.6955,-81.8138,1.784,0.23,1111122 
SCCF RECON,ioos:station:SCCF:18:1,2016-09-01T17:00:00Z,26.6955,-81.8138,1.896,0.23,1111122 
SCCF RECON,ioos:station:SCCF:18:1,2016-09-01T18:00:00Z,26.6955,-81.8138,1.977,0.23,1111122 
SCCF RECON,ioos:station:SCCF:18:1,2016-09-01T19:00:00Z,26.6955,-81.8138,2.044,0.23,1111122 
SCCF RECON,ioos:station:SCCF:18:1,2016-09-01T20:00:00Z,26.6955,-81.8138,2.095,0.23,1111122 
SCCF RECON,ioos:station:SCCF:18:1,2016-09-01T21:00:00Z,26.6955,-81.8138,2.158,0.23,1111122 
SCCF RECON,ioos:station:SCCF:18:1,2016-09-01T22:00:00Z,26.6955,-81.8138,2.188,0.23,1111122 
SCCF RECON,ioos:station:SCCF:18:1,2016-09-01T23:00:00Z,26.6955,-81.8138,2.157,0.23,1111122 
SCCF RECON,ioos:station:SCCF:18:1,2016-09-02T00:00:00Z,26.6955,-81.8138,2.086,0.23,1111122 
SCCF RECON,ioos:station:SCCF:18:1,2016-09-02T01:00:00Z,26.6955,-81.8138,2.044,0.23,1111122 
SCCF RECON,ioos:station:SCCF:18:1,2016-09-02T02:00:00Z,26.6955,-81.8138,1.956,0.23,1111122 
SCCF RECON,ioos:station:SCCF:18:1,2016-09-02T03:00:00Z,26.6955,-81.8138,1.929,0.22,1111122 
SCCF RECON,ioos:station:SCCF:18:1,2016-09-02T04:00:00Z,26.6955,-81.8138,1.915,0.22,1111122 
SCCF RECON,ioos:station:SCCF:18:1,2016-09-02T05:00:00Z,26.6955,-81.8138,1.966,0.22,1111122 
SCCF RECON,ioos:station:SCCF:18:1,2016-09-02T06:00:00Z,26.6955,-81.8138,2.027,0.22,1111122 
SCCF RECON,ioos:station:SCCF:18:1,2016-09-02T07:00:00Z,26.6955,-81.8138,2.082,0.22,1111122 
SCCF RECON,ioos:station:SCCF:18:1,2016-09-02T08:00:00Z,26.6955,-81.8138,2.121,0.22,1111122 
SCCF RECON,ioos:station:SCCF:18:1,2016-09-02T09:00:00Z,26.6955,-81.8138,2.168,0.22,1111122 
SCCF RECON,ioos:station:SCCF:18:1,2016-09-02T10:00:00Z,26.6955,-81.8138,2.174,0.23,1111122 
SCCF RECON,ioos:station:SCCF:18:1,2016-09-02T11:00:00Z,26.6955,-81.8138,2.116,0.22,1111122 
SCCF RECON,ioos:station:SCCF:18:1,2016-09-02T12:00:00Z,26.6955,-81.8138,2.05,0.21,1111122 
SCCF RECON,ioos:station:SCCF:18:1,2016-09-02T13:00:00Z,26.6955,-81.8138,2.005,0.21,1111122 
SCCF RECON,ioos:station:SCCF:18:1,2016-09-02T14:00:00Z,26.6955,-81.8138,1.966,0.21,1111122 
SCCF RECON,ioos:station:SCCF:18:1,2016-09-02T15:00:00Z,26.6955,-81.8138,1.938,0.21,1111122 
SCCF RECON,ioos:station:SCCF:18:1,2016-09-02T16:00:00Z,26.6955,-81.8138,1.932,0.2,1111122 
SCCF RECON,ioos:station:SCCF:18:1,2016-09-02T17:00:00Z,26.6955,-81.8138,1.931,0.2,1111122 
SCCF RECON,ioos:station:SCCF:18:1,2016-09-02T18:00:00Z,26.6955,-81.8138,2.05,0.2,1111122 
SCCF RECON,ioos:station:SCCF:18:1,2016-09-02T19:00:00Z,26.6955,-81.8138,2.09,0.2,1111122 
SCCF RECON,ioos:station:SCCF:18:1,2016-09-02T20:00:00Z,26.6955,-81.8138,2.043,0.2,1111122 
SCCF RECON,ioos:station:SCCF:18:1,2016-09-02T21:00:00Z,26.6955,-81.8138,2.005,0.2,1111122 
SCCF RECON,ioos:station:SCCF:18:1,2016-09-02T22:00:00Z,26.6955,-81.8138,1.949,0.2,1111122 
SCCF RECON,ioos:station:SCCF:18:1,2016-09-02T23:00:00Z,26.6955,-81.8138,1.9,0.2,1111122 
SCCF RECON,ioos:station:SCCF:18:1,2016-09-03T00:00:00Z,26.6955,-81.8138,1.854,0.2,1111122 
SCCF RECON,ioos:station:SCCF:18:1,2016-09-03T01:00:00Z,26.6955,-81.8138,1.831,0.2,1111122 
SCCF RECON,ioos:station:SCCF:18:1,2016-09-03T02:00:00Z,26.6955,-81.8138,1.761,0.19,1111122 
SCCF RECON,ioos:station:SCCF:18:1,2016-09-03T03:00:00Z,26.6955,-81.8138,1.693,0.2,1111122 
SCCF RECON,ioos:station:SCCF:18:1,2016-09-03T04:00:00Z,26.6955,-81.8138,1.618,0.19,1111122 
SCCF RECON,ioos:station:SCCF:18:1,2016-09-03T05:00:00Z,26.6955,-81.8138,1.575,0.19,1111122 
SCCF RECON,ioos:station:SCCF:18:1,2016-09-03T06:00:00Z,26.6955,-81.8138,1.626,0.2,1111122 
SCCF RECON,ioos:station:SCCF:18:1,2016-09-03T07:00:00Z,26.6955,-81.8138,1.701,0.2,1111122 
SCCF RECON,ioos:station:SCCF:18:1,2016-09-03T08:00:00Z,26.6955,-81.8138,1.792,0.2,1111122 
SCCF RECON,ioos:station:SCCF:18:1,2016-09-03T09:00:00Z,26.6955,-81.8138,1.829,0.2,1111122 
SCCF RECON,ioos:station:SCCF:18:1,2016-09-03T10:00:00Z,26.6955,-81.8138,1.813,0.19,1111122 
SCCF RECON,ioos:station:SCCF:18:1,2016-09-03T11:00:00Z,26.6955,-81.8138,1.744,0.19,1111122 
SCCF RECON,ioos:station:SCCF:18:1,2016-09-03T12:00:00Z,26.6955,-81.8138,1.675,0.2,1111122 
SCCF RECON,ioos:station:SCCF:18:1,2016-09-03T13:00:00Z,26.6955,-81.8138,1.635,0.2,1111122 
SCCF RECON,ioos:station:SCCF:18:1,2016-09-03T14:00:00Z,26.6955,-81.8138,1.592,0.19,1111122 
SCCF RECON,ioos:station:SCCF:18:1,2016-09-03T15:00:00Z,26.6955,-81.8138,1.542,0.19,1111122 
SCCF RECON,ioos:station:SCCF:18:1,2016-09-03T16:00:00Z,26.6955,-81.8138,1.501,0.19,1111122 
SCCF RECON,ioos:station:SCCF:18:1,2016-09-03T17:00:00Z,26.6955,-81.8138,1.507,0.19,1111122 
SCCF RECON,ioos:station:SCCF:18:1,2016-09-03T18:00:00Z,26.6955,-81.8138,1.622,0.19,1111122 
SCCF RECON,ioos:station:SCCF:18:1,2016-09-03T19:00:00Z,26.6955,-81.8138,1.717,0.2,1111122 
SCCF RECON,ioos:station:SCCF:18:1,2016-09-03T20:00:00Z,26.6955,-81.8138,1.765,0.2,1111122 
SCCF RECON,ioos:station:SCCF:18:1,2016-09-03T21:00:00Z,26.6955,-81.8138,1.825,0.2,1111122 
SCCF RECON,ioos:station:SCCF:18:1,2016-09-03T22:00:00Z,26.6955,-81.8138,1.863,0.19,1111122 
SCCF RECON,ioos:station:SCCF:18:1,2016-09-03T23:00:00Z,26.6955,-81.8138,1.855,0.2,1111122 
SCCF RECON,ioos:station:SCCF:18:1,2016-09-04T00:00:00Z,26.6955,-81.8138,1.781,0.2,1111122 
SCCF RECON,ioos:station:SCCF:18:1,2016-09-04T01:00:00Z,26.6955,-81.8138,1.715,0.19,1111122 
SCCF RECON,ioos:station:SCCF:18:1,2016-09-04T02:00:00Z,26.6955,-81.8138,1.663,0.2,1111122 
SCCF RECON,ioos:station:SCCF:18:1,2016-09-04T03:00:00Z,26.6955,-81.8138,1.613,0.2,1111122 
SCCF RECON,ioos:station:SCCF:18:1,2016-09-04T04:00:00Z,26.6955,-81.8138,1.564,0.2,1111122 
SCCF RECON,ioos:station:SCCF:18:1,2016-09-04T05:00:00Z,26.6955,-81.8138,1.532,0.2,1111122 
SCCF RECON,ioos:station:SCCF:18:1,2016-09-04T06:00:00Z,26.6955,-81.8138,1.549,0.2,1111122 
SCCF RECON,ioos:station:SCCF:18:1,2016-09-04T07:00:00Z,26.6955,-81.8138,1.644,0.2,1111122 
SCCF RECON,ioos:station:SCCF:18:1,2016-09-04T08:00:00Z,26.6955,-81.8138,1.718,0.2,1111122 
SCCF RECON,ioos:station:SCCF:18:1,2016-09-04T09:00:00Z,26.6955,-81.8138,1.76,0.2,1111122 
SCCF RECON,ioos:station:SCCF:18:1,2016-09-04T10:00:00Z,26.6955,-81.8138,1.778,0.2,1111122 
SCCF RECON,ioos:station:SCCF:18:1,2016-09-04T11:00:00Z,26.6955,-81.8138,1.774,0.2,1111122 
SCCF RECON,ioos:station:SCCF:18:1,2016-09-04T12:00:00Z,26.6955,-81.8138,1.715,0.2,1111122 
SCCF RECON,ioos:station:SCCF:18:1,2016-09-04T13:00:00Z,26.6955,-81.8138,1.65,0.2,1111122 
SCCF RECON,ioos:station:SCCF:18:1,2016-09-04T14:00:00Z,26.6955,-81.8138,1.6,0.19,1111122 
SCCF RECON,ioos:station:SCCF:18:1,2016-09-04T15:00:00Z,26.6955,-81.8138,1.556,0.2,1111122 
SCCF RECON,ioos:station:SCCF:18:1,2016-09-04T16:00:00Z,26.6955,-81.8138,1.509,0.2,1111122 
SCCF RECON,ioos:station:SCCF:18:1,2016-09-04T17:00:00Z,26.6955,-81.8138,1.454,0.19,1111122 
SCCF RECON,ioos:station:SCCF:18:1,2016-09-04T18:00:00Z,26.6955,-81.8138,1.456,0.2,1111122 
SCCF RECON,ioos:station:SCCF:18:1,2016-09-04T19:00:00Z,26.6955,-81.8138,1.557,0.19,1111122 
SCCF RECON,ioos:station:SCCF:18:1,2016-09-04T20:00:00Z,26.6955,-81.8138,1.653,0.2,1111122 
SCCF RECON,ioos:station:SCCF:18:1,2016-09-04T21:00:00Z,26.6955,-81.8138,1.713,0.2,1111122 
SCCF RECON,ioos:station:SCCF:18:1,2016-09-04T22:00:00Z,26.6955,-81.8138,1.746,0.2,1111122 
SCCF RECON,ioos:station:SCCF:18:1,2016-09-04T23:00:00Z,26.6955,-81.8138,1.776,0.2,1111122 
SCCF RECON,ioos:station:SCCF:18:1,2016-09-05T00:00:00Z,26.6955,-81.8138,1.715,0.19,1111122 
SCCF RECON,ioos:station:SCCF:18:1,2016-09-05T01:00:00Z,26.6955,-81.8138,1.657,0.19,1111122 
SCCF RECON,ioos:station:SCCF:18:1,2016-09-05T02:00:00Z,26.6955,-81.8138,1.606,0.19,1111122 
SCCF RECON,ioos:station:SCCF:18:1,2016-09-05T03:00:00Z,26.6955,-81.8138,1.559,0.2,1111122 
SCCF RECON,ioos:station:SCCF:18:1,2016-09-05T04:00:00Z,26.6955,-81.8138,1.525,0.2,1111122 
SCCF RECON,ioos:station:SCCF:18:1,2016-09-05T05:00:00Z,26.6955,-81.8138,1.488,0.19,1111122 
SCCF RECON,ioos:station:SCCF:18:1,2016-09-05T06:00:00Z,26.6955,-81.8138,1.477,0.19,1111122 
SCCF RECON,ioos:station:SCCF:18:1,2016-09-05T07:00:00Z,26.6955,-81.8138,1.523,0.2,1111122 
SCCF RECON,ioos:station:SCCF:18:1,2016-09-05T08:00:00Z,26.6955,-81.8138,1.614,0.19,1111122 
SCCF RECON,ioos:station:SCCF:18:1,2016-09-05T09:00:00Z,26.6955,-81.8138,1.685,0.19,1111122 
SCCF RECON,ioos:station:SCCF:18:1,2016-09-05T10:00:00Z,26.6955,-81.8138,1.731,0.19,1111122 
SCCF RECON,ioos:station:SCCF:18:1,2016-09-05T11:00:00Z,26.6955,-81.8138,1.747,0.19,1111122 
SCCF RECON,ioos:station:SCCF:18:1,2016-09-05T12:00:00Z,26.6955,-81.8138,1.718,0.19,1111122 
SCCF RECON,ioos:station:SCCF:18:1,2016-09-05T13:00:00Z,26.6955,-81.8138,1.66,0.2,1111122 
SCCF RECON,ioos:station:SCCF:18:1,2016-09-05T14:00:00Z,26.6955,-81.8138,1.608,0.2,1111122 
SCCF RECON,ioos:station:SCCF:18:1,2016-09-05T15:00:00Z,26.6955,-81.8138,1.545,0.2,1111122 
SCCF RECON,ioos:station:SCCF:18:1,2016-09-05T16:00:00Z,26.6955,-81.8138,1.495,0.2,1111122 
SCCF RECON,ioos:station:SCCF:18:1,2016-09-05T17:00:00Z,26.6955,-81.8138,1.449,0.2,1111122 
SCCF RECON,ioos:station:SCCF:18:1,2016-09-05T18:00:00Z,26.6955,-81.8138,1.417,0.2,1111122 
SCCF RECON,ioos:station:SCCF:18:1,2016-09-05T19:00:00Z,26.6955,-81.8138,1.442,0.2,1111122 
SCCF RECON,ioos:station:SCCF:18:1,2016-09-05T20:00:00Z,26.6955,-81.8138,1.533,0.19,1111122 
SCCF RECON,ioos:station:SCCF:18:1,2016-09-05T21:00:00Z,26.6955,-81.8138,1.635,0.2,1111122 
SCCF RECON,ioos:station:SCCF:18:1,2016-09-05T22:00:00Z,26.6955,-81.8138,1.701,0.19,1111122 
SCCF RECON,ioos:station:SCCF:18:1,2016-09-05T23:00:00Z,26.6955,-81.8138,1.772,0.19,1111122 
SCCF RECON,ioos:station:SCCF:18:1,2016-09-06T00:00:00Z,26.6955,-81.8138,1.749,0.19,1111122 
SCCF RECON,ioos:station:SCCF:18:1,2016-09-06T01:00:00Z,26.6955,-81.8138,1.783,0.19,1111122 
SCCF RECON,ioos:station:SCCF:18:1,2016-09-06T02:00:00Z,26.6955,-81.8138,1.728,0.19,1111122 
SCCF RECON,ioos:station:SCCF:18:1,2016-09-06T03:00:00Z,26.6955,-81.8138,1.672,0.19,1111122 
SCCF RECON,ioos:station:SCCF:18:1,2016-09-06T04:00:00Z,26.6955,-81.8138,1.627,0.19,1111122 
SCCF RECON,ioos:station:SCCF:18:1,2016-09-06T05:00:00Z,26.6955,-81.8138,1.593,0.2,1111122 
SCCF RECON,ioos:station:SCCF:18:1,2016-09-06T06:00:00Z,26.6955,-81.8138,1.543,0.2,1111122 
SCCF RECON,ioos:station:SCCF:18:1,2016-09-06T07:00:00Z,26.6955,-81.8138,1.525,0.19,1111122 
SCCF RECON,ioos:station:SCCF:18:1,2016-09-06T08:00:00Z,26.6955,-81.8138,1.605,0.18,1111122 
SCCF RECON,ioos:station:SCCF:18:1,2016-09-06T09:00:00Z,26.6955,-81.8138,1.702,0.19,1111122 
SCCF RECON,ioos:station:SCCF:18:1,2016-09-06T10:00:00Z,26.6955,-81.8138,1.765,0.19,1111122 
SCCF RECON,ioos:station:SCCF:18:1,2016-09-06T11:00:00Z,26.6955,-81.8138,1.804,0.19,1111122 
SCCF RECON,ioos:station:SCCF:18:1,2016-09-06T12:00:00Z,26.6955,-81.8138,1.8,0.19,1111122 
SCCF RECON,ioos:station:SCCF:18:1,2016-09-06T13:00:00Z,26.6955,-81.8138,1.75,0.18,1111122 
SCCF RECON,ioos:station:SCCF:18:1,2016-09-06T14:00:00Z,26.6955,-81.8138,1.705,0.18,1111122 
SCCF RECON,ioos:station:SCCF:18:1,2016-09-06T15:00:00Z,26.6955,-81.8138,1.658,0.18,1111122 
SCCF RECON,ioos:station:SCCF:18:1,2016-09-06T16:00:00Z,26.6955,-81.8138,1.618,0.17,1111122 
SCCF RECON,ioos:station:SCCF:18:1,2016-09-06T17:00:00Z,26.6955,-81.8138,1.574,0.17,1111122 
SCCF RECON,ioos:station:SCCF:18:1,2016-09-06T18:00:00Z,26.6955,-81.8138,1.528,0.18,1111122 
SCCF RECON,ioos:station:SCCF:18:1,2016-09-06T19:00:00Z,26.6955,-81.8138,1.497,0.18,1111122 
SCCF RECON,ioos:station:SCCF:18:1,2016-09-06T20:00:00Z,26.6955,-81.8138,1.531,0.18,1111122 
SCCF RECON,ioos:station:SCCF:18:1,2016-09-06T21:00:00Z,26.6955,-81.8138,1.649,0.18,1111122 
SCCF RECON,ioos:station:SCCF:18:1,2016-09-06T22:00:00Z,26.6955,-81.8138,1.726,0.18,1111122 
SCCF RECON,ioos:station:SCCF:18:1,2016-09-06T23:00:00Z,26.6955,-81.8138,1.765,0.17,1111122 
SCCF RECON,ioos:station:SCCF:18:1,2016-09-07T00:00:00Z,26.6955,-81.8138,1.759,0.18,1111122 
SCCF RECON,ioos:station:SCCF:18:1,2016-09-07T01:00:00Z,26.6955,-81.8138,1.73,0.17,1111122 
SCCF RECON,ioos:station:SCCF:18:1,2016-09-07T02:00:00Z,26.6955,-81.8138,1.693,0.18,1111122 
SCCF RECON,ioos:station:SCCF:18:1,2016-09-07T03:00:00Z,26.6955,-81.8138,1.656,0.17,1111122 
SCCF RECON,ioos:station:SCCF:18:1,2016-09-07T04:00:00Z,26.6955,-81.8138,1.618,0.17,1111122 
SCCF RECON,ioos:station:SCCF:18:1,2016-09-07T05:00:00Z,26.6955,-81.8138,1.585,0.17,1111122 
SCCF RECON,ioos:station:SCCF:18:1,2016-09-07T06:00:00Z,26.6955,-81.8138,1.551,0.17,1111122 
SCCF RECON,ioos:station:SCCF:18:1,2016-09-07T07:00:00Z,26.6955,-81.8138,1.534,0.17,1111122 
SCCF RECON,ioos:station:SCCF:18:1,2016-09-07T08:00:00Z,26.6955,-81.8138,1.588,0.17,1111122 
SCCF RECON,ioos:station:SCCF:18:1,2016-09-07T09:00:00Z,26.6955,-81.8138,1.663,0.17,1111122 
SCCF RECON,ioos:station:SCCF:18:1,2016-09-07T10:00:00Z,26.6955,-81.8138,1.737,0.17,1111122 
SCCF RECON,ioos:station:SCCF:18:1,2016-09-07T11:00:00Z,26.6955,-81.8138,1.776,0.17,1111122 
SCCF RECON,ioos:station:SCCF:18:1,2016-09-07T12:00:00Z,26.6955,-81.8138,1.786,0.17,1111122 
SCCF RECON,ioos:station:SCCF:18:1,2016-09-07T13:00:00Z,26.6955,-81.8138,1.768,0.17,1111122 
SCCF RECON,ioos:station:SCCF:18:1,2016-09-07T14:00:00Z,26.6955,-81.8138,1.727,0.18,1111122 
SCCF RECON,ioos:station:SCCF:18:1,2016-09-07T15:00:00Z,26.6955,-81.8138,1.675,0.17,1111122 
SCCF RECON,ioos:station:SCCF:18:1,2016-09-07T16:00:00Z,26.6955,-81.8138,1.624,0.17,1111122 
SCCF RECON,ioos:station:SCCF:18:1,2016-09-07T17:00:00Z,26.6955,-81.8138,1.581,0.17,1111122 
SCCF RECON,ioos:station:SCCF:18:1,2016-09-07T18:00:00Z,26.6955,-81.8138,1.53,0.17,1111122 
SCCF RECON,ioos:station:SCCF:18:1,2016-09-07T19:00:00Z,26.6955,-81.8138,1.482,0.17,1111122 
SCCF RECON,ioos:station:SCCF:18:1,2016-09-07T20:00:00Z,26.6955,-81.8138,1.463,0.17,1111122 
SCCF RECON,ioos:station:SCCF:18:1,2016-09-07T21:00:00Z,26.6955,-81.8138,1.487,0.17,1111122 
SCCF RECON,ioos:station:SCCF:18:1,2016-09-07T22:00:00Z,26.6955,-81.8138,1.553,0.17,1111122 
SCCF RECON,ioos:station:SCCF:18:1,2016-09-07T23:00:00Z,26.6955,-81.8138,1.614,0.17,1111122 
SCCF RECON,ioos:station:SCCF:18:1,2016-09-08T00:00:00Z,26.6955,-81.8138,1.636,0.17,1111122 
SCCF RECON,ioos:station:SCCF:18:1,2016-09-08T01:00:00Z,26.6955,-81.8138,1.627,0.17,1111122 
SCCF RECON,ioos:station:SCCF:18:1,2016-09-08T02:00:00Z,26.6955,-81.8138,1.619,0.17,1111122 
SCCF RECON,ioos:station:SCCF:18:1,2016-09-08T03:00:00Z,26.6955,-81.8138,1.598,0.17,1111122 
SCCF RECON,ioos:station:SCCF:18:1,2016-09-08T04:00:00Z,26.6955,-81.8138,1.563,0.17,1111122 
SCCF RECON,ioos:station:SCCF:18:1,2016-09-08T05:00:00Z,26.6955,-81.8138,1.525,0.17,1111122 
SCCF RECON,ioos:station:SCCF:18:1,2016-09-08T06:00:00Z,26.6955,-81.8138,1.504,0.17,1111122 
SCCF RECON,ioos:station:SCCF:18:1,2016-09-08T07:00:00Z,26.6955,-81.8138,1.5,0.17,1111122 
SCCF RECON,ioos:station:SCCF:18:1,2016-09-08T08:00:00Z,26.6955,-81.8138,1.536,0.17,1111122 
SCCF RECON,ioos:station:SCCF:18:1,2016-09-08T09:00:00Z,26.6955,-81.8138,1.585,0.17,1111122 
SCCF RECON,ioos:station:SCCF:18:1,2016-09-08T10:00:00Z,26.6955,-81.8138,1.655,0.17,1111122 
SCCF RECON,ioos:station:SCCF:18:1,2016-09-08T11:00:00Z,26.6955,-81.8138,1.708,0.17,1111122 
SCCF RECON,ioos:station:SCCF:18:1,2016-09-08T12:00:00Z,26.6955,-81.8138,1.746,0.17,1111122 
SCCF RECON,ioos:station:SCCF:18:1,2016-09-08T13:00:00Z,26.6955,-81.8138,1.746,0.17,1111122 
SCCF RECON,ioos:station:SCCF:18:1,2016-09-08T14:00:00Z,26.6955,-81.8138,1.713,0.17,1111122 
SCCF RECON,ioos:station:SCCF:18:1,2016-09-08T15:00:00Z,26.6955,-81.8138,1.66,0.17,1111122 
SCCF RECON,ioos:station:SCCF:18:1,2016-09-08T16:00:00Z,26.6955,-81.8138,1.606,0.17,1111122 
SCCF RECON,ioos:station:SCCF:18:1,2016-09-08T17:00:00Z,26.6955,-81.8138,1.548,0.16,1111122 
SCCF RECON,ioos:station:SCCF:18:1,2016-09-08T18:00:00Z,26.6955,-81.8138,1.496,0.16,1111122 
SCCF RECON,ioos:station:SCCF:18:1,2016-09-08T19:00:00Z,26.6955,-81.8138,1.443,0.16,1111122 
SCCF RECON,ioos:station:SCCF:18:1,2016-09-08T20:00:00Z,26.6955,-81.8138,1.407,0.17,1111122 
SCCF RECON,ioos:station:SCCF:18:1,2016-09-08T21:00:00Z,26.6955,-81.8138,1.397,0.17,1111122 
SCCF RECON,ioos:station:SCCF:18:1,2016-09-08T22:00:00Z,26.6955,-81.8138,1.445,0.17,1111122 
SCCF RECON,ioos:station:SCCF:18:1,2016-09-08T23:00:00Z,26.6955,-81.8138,1.513,0.17,1111122 
SCCF RECON,ioos:station:SCCF:18:1,2016-09-09T00:00:00Z,26.6955,-81.8138,1.583,0.17,1111122 
SCCF RECON,ioos:station:SCCF:18:1,2016-09-09T01:00:00Z,26.6955,-81.8138,1.599,0.17,1111122 
SCCF RECON,ioos:station:SCCF:18:1,2016-09-09T02:00:00Z,26.6955,-81.8138,1.632,0.17,1111122 
SCCF RECON,ioos:station:SCCF:18:1,2016-09-09T03:00:00Z,26.6955,-81.8138,1.637,0.17,1111122 
SCCF RECON,ioos:station:SCCF:18:1,2016-09-09T04:00:00Z,26.6955,-81.8138,1.655,0.17,1111122 
SCCF RECON,ioos:station:SCCF:18:1,2016-09-09T05:00:00Z,26.6955,-81.8138,1.635,0.17,1111122 
SCCF RECON,ioos:station:SCCF:18:1,2016-09-09T06:00:00Z,26.6955,-81.8138,1.602,0.17,1111122 
SCCF RECON,ioos:station:SCCF:18:1,2016-09-09T07:00:00Z,26.6955,-81.8138,1.575,0.17,1111122 
SCCF RECON,ioos:station:SCCF:18:1,2016-09-09T08:00:00Z,26.6955,-81.8138,1.555,0.17,1111122 
SCCF RECON,ioos:station:SCCF:18:1,2016-09-09T09:00:00Z,26.6955,-81.8138,1.551,0.17,1111122 
SCCF RECON,ioos:station:SCCF:18:1,2016-09-09T10:00:00Z,26.6955,-81.8138,1.595,0.17,1111122 
SCCF RECON,ioos:station:SCCF:18:1,2016-09-09T11:00:00Z,26.6955,-81.8138,1.674,0.17,1111122 
SCCF RECON,ioos:station:SCCF:18:1,2016-09-09T12:00:00Z,26.6955,-81.8138,1.733,0.17,1111122 
SCCF RECON,ioos:station:SCCF:18:1,2016-09-09T13:00:00Z,26.6955,-81.8138,1.753,0.17,1111122 
SCCF RECON,ioos:station:SCCF:18:1,2016-09-09T14:00:00Z,26.6955,-81.8138,1.739,0.17,1111122 
SCCF RECON,ioos:station:SCCF:18:1,2016-09-09T15:00:00Z,26.6955,-81.8138,1.688,0.17,1111122 
SCCF RECON,ioos:station:SCCF:18:1,2016-09-09T16:00:00Z,26.6955,-81.8138,1.628,0.18,1111122 
SCCF RECON,ioos:station:SCCF:18:1,2016-09-09T17:00:00Z,26.6955,-81.8138,1.573,0.17,1111122 
SCCF RECON,ioos:station:SCCF:18:1,2016-09-09T18:00:00Z,26.6955,-81.8138,1.516,0.17,1111122 
SCCF RECON,ioos:station:SCCF:18:1,2016-09-09T19:00:00Z,26.6955,-81.8138,1.459,0.17,1111122 
SCCF RECON,ioos:station:SCCF:18:1,2016-09-09T20:00:00Z,26.6955,-81.8138,1.404,0.16,1111122 
SCCF RECON,ioos:station:SCCF:18:1,2016-09-09T21:00:00Z,26.6955,-81.8138,1.367,0.17,1111122 
SCCF RECON,ioos:station:SCCF:18:1,2016-09-09T22:00:00Z,26.6955,-81.8138,1.348,0.17,1111122 
SCCF RECON,ioos:station:SCCF:18:1,2016-09-09T23:00:00Z,26.6955,-81.8138,1.377,0.17,1111122 
SCCF RECON,ioos:station:SCCF:18:1,2016-09-10T00:00:00Z,26.6955,-81.8138,1.465,0.17,1111122 
SCCF RECON,ioos:station:SCCF:18:1,2016-09-10T01:00:00Z,26.6955,-81.8138,1.537,0.17,1111122 
SCCF RECON,ioos:station:SCCF:18:1,2016-09-10T02:00:00Z,26.6955,-81.8138,1.578,0.17,1111122 
SCCF RECON,ioos:station:SCCF:18:1,2016-09-10T03:00:00Z,26.6955,-81.8138,1.61,0.17,1111122 
SCCF RECON,ioos:station:SCCF:18:1,2016-09-10T04:00:00Z,26.6955,-81.8138,1.645,0.17,1111122 
SCCF RECON,ioos:station:SCCF:18:1,2016-09-10T05:00:00Z,26.6955,-81.8138,1.645,0.17,1111122 
SCCF RECON,ioos:station:SCCF:18:1,2016-09-10T06:00:00Z,26.6955,-81.8138,1.607,0.18,1111122 
SCCF RECON,ioos:station:SCCF:18:1,2016-09-10T07:00:00Z,26.6955,-81.8138,1.565,0.18,1111122 
SCCF RECON,ioos:station:SCCF:18:1,2016-09-10T08:00:00Z,26.6955,-81.8138,1.532,0.18,1111122 
SCCF RECON,ioos:station:SCCF:18:1,2016-09-10T09:00:00Z,26.6955,-81.8138,1.51,0.17,1111122 
SCCF RECON,ioos:station:SCCF:18:1,2016-09-10T10:00:00Z,26.6955,-81.8138,1.507,0.17,1111122 
SCCF RECON,ioos:station:SCCF:18:1,2016-09-10T11:00:00Z,26.6955,-81.8138,1.567,0.17,1111122 
SCCF RECON,ioos:station:SCCF:18:1,2016-09-10T12:00:00Z,26.6955,-81.8138,1.656,0.17,1111122 
SCCF RECON,ioos:station:SCCF:18:1,2016-09-10T13:00:00Z,26.6955,-81.8138,1.724,0.17,1111122 
SCCF RECON,ioos:station:SCCF:18:1,2016-09-10T14:00:00Z,26.6955,-81.8138,1.757,0.17,1111122 
SCCF RECON,ioos:station:SCCF:18:1,2016-09-10T15:00:00Z,26.6955,-81.8138,1.775,0.17,1111122 
SCCF RECON,ioos:station:SCCF:18:1,2016-09-10T16:00:00Z,26.6955,-81.8138,1.777,0.17,1111122 
SCCF RECON,ioos:station:SCCF:18:1,2016-09-10T17:00:00Z,26.6955,-81.8138,1.706,0.17,1111122 
SCCF RECON,ioos:station:SCCF:18:1,2016-09-10T18:00:00Z,26.6955,-81.8138,1.628,0.18,1111122 
SCCF RECON,ioos:station:SCCF:18:1,2016-09-10T19:00:00Z,26.6955,-81.8138,1.565,0.17,1111122 
SCCF RECON,ioos:station:SCCF:18:1,2016-09-10T20:00:00Z,26.6955,-81.8138,1.516,0.17,1111122 
SCCF RECON,ioos:station:SCCF:18:1,2016-09-10T21:00:00Z,26.6955,-81.8138,1.466,0.17,1111122 
SCCF RECON,ioos:station:SCCF:18:1,2016-09-10T22:00:00Z,26.6955,-81.8138,1.416,0.18,1111122 
SCCF RECON,ioos:station:SCCF:18:1,2016-09-10T23:00:00Z,26.6955,-81.8138,1.432,0.17,1111122 
SCCF RECON,ioos:station:SCCF:18:1,2016-09-11T00:00:00Z,26.6955,-81.8138,1.462,0.17,1111122 
SCCF RECON,ioos:station:SCCF:18:1,2016-09-11T01:00:00Z,26.6955,-81.8138,1.56,0.17,1111122 
SCCF RECON,ioos:station:SCCF:18:1,2016-09-11T02:00:00Z,26.6955,-81.8138,1.606,0.17,1111122 
SCCF RECON,ioos:station:SCCF:18:1,2016-09-11T03:00:00Z,26.6955,-81.8138,1.635,0.18,1111122 
SCCF RECON,ioos:station:SCCF:18:1,2016-09-11T04:00:00Z,26.6955,-81.8138,1.668,0.18,1111122 
SCCF RECON,ioos:station:SCCF:18:1,2016-09-11T05:00:00Z,26.6955,-81.8138,1.711,0.18,1111122 
SCCF RECON,ioos:station:SCCF:18:1,2016-09-11T06:00:00Z,26.6955,-81.8138,1.723,0.17,1111122 
SCCF RECON,ioos:station:SCCF:18:1,2016-09-11T07:00:00Z,26.6955,-81.8138,1.688,0.17,1111122 
SCCF RECON,ioos:station:SCCF:18:1,2016-09-11T08:00:00Z,26.6955,-81.8138,1.635,0.17,1111122 
SCCF RECON,ioos:station:SCCF:18:1,2016-09-11T09:00:00Z,26.6955,-81.8138,1.596,0.18,1111122 
SCCF RECON,ioos:station:SCCF:18:1,2016-09-11T10:00:00Z,26.6955,-81.8138,1.589,0.18,1111122 
SCCF RECON,ioos:station:SCCF:18:1,2016-09-11T11:00:00Z,26.6955,-81.8138,1.597,0.18,1111122 
SCCF RECON,ioos:station:SCCF:18:1,2016-09-11T12:00:00Z,26.6955,-81.8138,1.652,0.18,1111122 
SCCF RECON,ioos:station:SCCF:18:1,2016-09-11T13:00:00Z,26.6955,-81.8138,1.723,0.18,1111122 
SCCF RECON,ioos:station:SCCF:18:1,2016-09-11T14:00:00Z,26.6955,-81.8138,1.787,0.18,1111122 
SCCF RECON,ioos:station:SCCF:18:1,2016-09-11T15:00:00Z,26.6955,-81.8138,1.818,0.18,1111122 
SCCF RECON,ioos:station:SCCF:18:1,2016-09-11T16:00:00Z,26.6955,-81.8138,1.817,0.18,1111122 
SCCF RECON,ioos:station:SCCF:18:1,2016-09-11T17:00:00Z,26.6955,-81.8138,1.783,0.18,1111122 
SCCF RECON,ioos:station:SCCF:18:1,2016-09-11T18:00:00Z,26.6955,-81.8138,1.699,0.19,1111122 
SCCF RECON,ioos:station:SCCF:18:1,2016-09-11T19:00:00Z,26.6955,-81.8138,1.627,0.19,1111122 